Flag for Cuba Weather past 2 weeks in Camagüey, Cuba

Now
90 °F

Passing clouds.


Feels Like: 92 °F
Forecast: N/A
Wind: 22 mph from East

Location: Camaguey Aeropuerto

Current Time: Jul 6, 2015 at 6:24:42 PM

Latest Report: Jul 6, 2015 at 4:50 PM


Visibility: 6 mi

Pressure: 30.07 "Hg

Humidity: 46%

Dew point: 66 °F

Location of CamagüeyLocation

Historic Weather in Camagüey — Graph

°F

Camagüey temperature yesterday

Maximum temperature yesterday: 93 °F (at 2:50 PM)
Minimum temperature yesterday: 77 °F (at 4:50 AM)
Average temperature yesterday: 83 °F

Past Weeks' High & Low Weather Summary

 TemperatureHumidityPressure
High95 °F (Jun 29, 1:50 PM)94% (Jun 22, 6:50 AM)30.15 "Hg (Jun 22, 6:50 AM)
Low72 °F (Jun 22, 6:50 AM)36% (Jun 23, 2:50 PM)29.98 "Hg (Jul 3, 4:50 PM)
Average81 °F72%30.08 "Hg
* Reported Jun 21 4:51 PM — Jul 6 4:50 PM, Camagüey, Weather by CustomWeather, © 2015

Note: Actual official high and low records may vary slightly from our data, if they occured in-between our weather recording intervals... More about our weather records

Advertising

Camagüey weather history for previous 24 hours

 ConditionsComfort  
Time TempWeatherWind HumidityBarometerVisibility
4:50 PM
Mon, Jul 6
90 °FPassing clouds.22 mph46%30.07 "Hg6 mi
3:50 PM91 °FPassing clouds.22 mph41%30.07 "Hg6 mi
2:50 PM91 °FPassing clouds.21 mph44%30.07 "Hg6 mi
1:50 PM91 °FPassing clouds.21 mph41%30.09 "Hg6 mi
12:50 PM90 °FPassing clouds.18 mph49%30.12 "Hg6 mi
11:50 AM88 °FPassing clouds.21 mph52%30.12 "Hg6 mi
10:50 AM86 °FPassing clouds.20 mph59%30.12 "Hg6 mi
9:50 AM84 °FPassing clouds.20 mph62%30.15 "Hg6 mi
8:50 AM81 °FPassing clouds.17 mph70%30.15 "Hg6 mi
7:50 AM77 °FPassing clouds.12 mph83%30.12 "Hg6 mi
6:50 AM75 °FPassing clouds.10 mph89%30.12 "Hg5 mi
5:50 AM77 °FPassing clouds.13 mph83%30.09 "Hg6 mi
4:50 AM77 °FPassing clouds.10 mph83%30.09 "Hg6 mi
3:50 AM77 °FPassing clouds.13 mph83%30.09 "Hg6 mi
2:50 AM77 °FPassing clouds.12 mph83%30.09 "Hg6 mi
1:50 AM77 °FClear.12 mph89%30.09 "Hg6 mi
12:50 AM79 °FClear.10 mph84%30.12 "Hg6 mi
11:50 PM
Sun, Jul 5
79 °FClear.14 mph84%30.12 "Hg6 mi
10:50 PM79 °FClear.13 mph84%30.12 "Hg6 mi
9:50 PM79 °FPassing clouds.13 mph79%30.09 "Hg6 mi
8:50 PM81 °FPassing clouds.5 mph74%30.09 "Hg6 mi
7:50 PM82 °FPassing clouds.16 mph70%30.09 "Hg6 mi
6:52 PM86 °FPassing clouds.18 mph62%30.07 "Hg6 mi
Weather by CustomWeather, © 2015

See weather overviewHow to use our weather pages